Overview Statistics Trail Chart Weather Telemetry Raw packets
 

This is the latest recevied weather packets stored in our database for station/object K7DC. If no packets are shown the sender has not sent any weather packets the latest 10 day(s).

<< 83 84 85 86 87 88 89 >>
Time Temp. Humidity Pressure Rain* Wind** Luminosity Snow
1788028516 40° C 27% 1016.1 hPa 0 mm - 843 W/m² -
1788028212 40° C 26% 1016 hPa 0 mm - 837 W/m² -
1788027907 40° C 26% 1016 hPa 0 mm - 833 W/m² -
1788027601 40° C 26% 1016.1 hPa 0 mm - 830 W/m² -
1788027296 39.44° C 27% 1016.5 hPa 0 mm - 824 W/m² -
1788026995 37.78° C 30% 1016.5 hPa 0 mm - 816 W/m² -
1788026696 37.78° C 30% 1016.4 hPa 0 mm - 806 W/m² -
1788026385 37.78° C 30% 1016.3 hPa 0 mm - 798 W/m² -
1788026081 37.78° C 29% 1016.4 hPa 0 mm - 791 W/m² -
1788025774 38.33° C 29% 1016.6 hPa 0 mm - 784 W/m² -
1788025473 37.78° C 31% 1016.7 hPa 0 mm - 776 W/m² -
1788025170 38.33° C 29% 1016.6 hPa 0 mm - 767 W/m² -
1788024870 37.78° C 30% 1016.7 hPa 0 mm - 755 W/m² -
1788024565 38.33° C 30% 1016.6 hPa 0 mm - 746 W/m² -
1788024264 38.89° C 29% 1016.7 hPa 0 mm - 735 W/m² -
1788023960 38.33° C 29% 1016.7 hPa 0 mm - 723 W/m² -
1788023656 38.33° C 30% 1016.6 hPa 0 mm - 711 W/m² -
1788023352 36.67° C 32% 1016.8 hPa 0 mm - 697 W/m² -
1788023051 37.22° C 31% 1016.8 hPa 0 mm - 685 W/m² -
1788022749 37.22° C 31% 1016.5 hPa 0 mm - 673 W/m² -
1788022448 36.11° C 33% 1016.5 hPa 0 mm - 659 W/m² -
1788022143 36.11° C 33% 1016.8 hPa 0 mm - 644 W/m² -
1788021837 35.56° C 33% 1016.7 hPa 0 mm - 618 W/m² -
1788021535 35.56° C 34% 1016.8 hPa 0 mm - 529 W/m² -
1788021234 35.56° C 34% 1016.8 hPa 0 mm - 572 W/m² -

* Rain latest hour (hover to see other rain measurements)
** Current wind speed in m/s (hover to see current wind gust speed)